Regional Weather Roundup
Issued by NWS

Home | Current Version | Previous Version | Graphics & Text | Print | Product List | Glossary On
Versions: 1 2 3 4 5 6 7 8 9 10 11 12 13 14 15 16 17 18 19 20 21 22 23 24 25 26 27 28 29 30 31 32 33 34 35 36 37 38 39 40 41 42 43 44 45 46 47 48 49 50
000
ASUS43 KOAX 291810
RWRNE

WEATHER ROUNDUP FOR NEBRASKA
NATIONAL WEATHER SERVICE OMAHA NE
100 PM CDT TUE JUL 29 2014

NOTES: SATELLITE DATA IS BEING USED TO AUGMENT CLOUD COVER ABOVE
       12000 FEET.
       "FAIR" INDICATES FEW OR NO CLOUDS BELOW 12,000 FEET WITH NO
       SIGNIFICANT WEATHER AND/OR OBSTRUCTIONS TO VISIBILITY.

  * THESE STATIONS DO NOT REPORT WEATHER SUCH AS RAIN...SNOW OR FOG.

NEZ001>004-019>022-054>056-291900-
NEBRASKA PANHANDLE

CITY           SKY/WX    TMP DP  RH WIND       PRES   REMARKS
SCOTTSBLUFF    MOSUNNY   72  59  63 VRB3      30.25F
6HR MIN TEMP:  58; 6HR MAX TEMP:  72;

ALLIANCE       MOSUNNY   78  55  44 SE14G26   30.23F
6HR MIN TEMP:  58; 6HR MAX TEMP:  79;

CHADRON        PTSUNNY   76  57  51 N13       30.24R
6HR MIN TEMP:  60; 6HR MAX TEMP:  76; 6HR PCP:  0.02;

KIMBALL        MOSUNNY   76  59  56 E10       30.25F
SIDNEY         SUNNY     80  58  46 SE10      30.25F
6HR MIN TEMP:  56; 6HR MAX TEMP:  80;

$$

NEZ057>060-069>072-079>082-291900-
SOUTHWEST NEBRASKA

CITY           SKY/WX    TMP DP  RH WIND       PRES   REMARKS
NORTH PLATTE   MOSUNNY   75  57  53 SE8       30.22F
6HR MIN TEMP:  56; 6HR MAX TEMP:  75; 6HR PCP: TRACE;

IMPERIAL       PTSUNNY   76  60  57 E8        30.22F
6HR MIN TEMP:  58; 6HR MAX TEMP:  76;

LEXINGTON      MOSUNNY   76  57  52 SE10      30.22F
MCCOOK         MOSUNNY   81  59  47 E15       30.19F
6HR MIN TEMP:  58; 6HR MAX TEMP:  81;

OGALLALA       SUNNY     76  59  55 E7        30.21F
$$

NEZ005>010-023>029-035>040-094-291900-
NORTH CENTRAL NEBRASKA

CITY           SKY/WX    TMP DP  RH WIND       PRES   REMARKS
VALENTINE      CLOUDY    76  52  43 VRB3      30.23F
6HR MIN TEMP:  55; 6HR MAX TEMP:  77;

AINSWORTH      PTSUNNY   74  53  47 E3        30.23F
BROKEN BOW     CLOUDY    74  59  59 SE8       30.23F
6HR MIN TEMP:  61; 6HR MAX TEMP:  74; 6HR PCP: TRACE;

O`NEILL        PTSUNNY   76  51  41 W6        30.23F
ORD            PTSUNNY   75  58  55 VRB5      30.22F
6HR MIN TEMP:  60; 6HR MAX TEMP:  75;

THEDFORD       CLOUDY    75  59  57 SE8       30.24F
$$

NEZ041-046>049-061>064-073>077-083>087-291900-
SOUTH CENTRAL NEBRASKA

CITY           SKY/WX    TMP DP  RH WIND       PRES   REMARKS
GRAND ISLAND   PTSUNNY   74  53  48 E7        30.23F
6HR MIN TEMP:  63; 6HR MAX TEMP:  74; 6HR PCP: TRACE;

AURORA         PTSUNNY   75  56  52 N3        30.22F
HASTINGS       PTSUNNY   75  53  46 VRB6      30.23F
6HR MIN TEMP:  63; 6HR MAX TEMP:  75; 6HR PCP:  0.03;

HEBRON         PTSUNNY   73  55  53 CALM      30.22F
HOLDREGE       MOSUNNY   76  54  46 SE8       30.22F
KEARNEY *      MOSUNNY   75  54  46 SE6       30.23F
YORK           MOSUNNY   73  55  53 E3        30.22F
$$

NEZ011>018-030>034-042>045-291900-
NORTHEAST NEBRASKA

CITY           SKY/WX    TMP DP  RH WIND       PRES   REMARKS
NORFOLK        MOSUNNY   76  52  43 N8        30.22F
6HR MIN TEMP:  53; 6HR MAX TEMP:  77;

ALBION         MOSUNNY   74  52  45 CALM      30.22F
BLAIR          CLOUDY    73  54  52 N7        30.21S
COLUMBUS *     MOSUNNY   75  54  46 CALM      30.21F
FREMONT        MOSUNNY   76  53  43 N3        30.21F
TEKAMAH        MOSUNNY   76  55  48 VRB7      30.20F
6HR MIN TEMP:  56; 6HR MAX TEMP:  77;

WAYNE          MOSUNNY   74  55  51 NW7       30.23F
$$

NEZ050>053-065>068-078-088>093-291900-
SOUTHEAST NEBRASKA

CITY           SKY/WX    TMP DP  RH WIND       PRES   REMARKS
LINCOLN        MOSUNNY   80  52  37 N9        30.21F
6HR MIN TEMP:  58; 6HR MAX TEMP:  81;

OMAHA EPPLEY   PTSUNNY   77  55  46 NW8       30.20F
6HR MIN TEMP:  59; 6HR MAX TEMP:  78;

BEATRICE       MOSUNNY   77  58  52 CALM      30.21F
FALLS CITY     MOSUNNY   80  58  46 NW9       30.18F
6HR MIN TEMP:  55; 6HR MAX TEMP:  80;

NEBRASKA CITY  PTSUNNY   74  55  50 N3        30.19F
PLATTSMOUTH    PTSUNNY   74  54  49 CALM      30.20F
$$

NEZ044-045-051>053-067-291900-
OMAHA AREA

CITY           SKY/WX    TMP DP  RH WIND       PRES   REMARKS
OMAHA EPPLEY   PTSUNNY   77  55  46 NW8       30.20F
6HR MIN TEMP:  59; 6HR MAX TEMP:  78;

BLAIR          CLOUDY    73  54  52 N7        30.21S
FREMONT        MOSUNNY   76  53  43 N3        30.21F
MILLARD        PTSUNNY   75  55  50 NW8       30.20F HAZE
OFFUTT AFB     MOSUNNY   78  55  45 N6        30.19F
PLATTSMOUTH    PTSUNNY   74  54  49 CALM      30.20F
WAHOO          FAIR      76  52  42 N6        30.21F
$$


USA.gov is the U.S. government's official web portal to all federal, state and local government web resources and services.